Powrót do katalogu

DELTA 1 DEB

AktywnyLEO
NORAD 10876·DEBRIS·🇺🇸 United States

Wystrzelony Jul 29, 1976 z Vandenberg Space Force Base

Loading…

Następne Przeloty (najbliższe 24 godziny)

TLE

ŚwieżeSource: Space-Track

Epoka: Sep 14, 2026, 00:46 UTC

1 10876U 76077DE  26257.03216579  .00000008  00000-0  37232-3 0  9992
2 10876 102.6059 285.4188 0101338 107.6198 281.0855 12.48809227282184

Śledź DELTA 1 DEB w czasie rzeczywistym z AllMySat

Download on the App Store